FW2259 Weather Reports


Display with metric or nautical units.
time (UTC)temp
F
wind
direction
speed
MPH
gust
MPH
rain 1hr
in
rain 24hr
in
rain mn
in
humidity
%
barometer
mb
20260504231506 56 261 0.0 2.0 0.00 0.00 0.00 71 1016.9
20260504230005 56 261 0.0 2.0 0.00 0.00 0.00 72 1017.0
20260504224503 56 265 0.0 2.0 0.00 0.00 0.00 70 1017.2
20260504223002 57 261 0.0 5.0 0.00 0.00 0.00 70 1017.3
20260504221557 56 194 0.0 1.0 0.00 0.00 0.00 73 1017.3
20260504220056 56 194 0.0 2.0 0.00 0.00 0.00 72 1017.3
20260504214554 56 194 0.0 1.0 0.00 0.00 0.00 72 1017.4
20260504213102 57 194 0.0 1.0 0.00 0.00 0.00 71 1017.3
20260504211553 57 194 0.0 2.0 0.00 0.00 0.00 72 1017.4
20260504210058 57 194 0.0 2.0 0.00 0.00 0.00 73 1017.5
20260504204553 56 194 0.0 0.0 0.00 0.00 0.00 73 1017.5
20260504203106 57 194 0.0 2.0 0.00 0.00 0.00 71 1017.5
20260504201555 58 194 0.0 2.0 0.00 0.00 0.00 67 1017.5
20260504200054 58 194 0.0 0.0 0.00 0.00 0.00 66 1017.5
20260504194550 59 194 0.0 2.0 0.00 0.00 0.00 64 1017.5
20260504193053 60 244 0.0 4.0 0.00 0.00 0.00 62 1017.3
20260504191556 60 207 0.0 4.0 0.00 0.00 0.00 61 1017.3
20260504190049 61 194 0.0 2.0 0.00 0.00 0.00 60 1017.1
20260504184548 62 194 0.0 2.0 0.00 0.00 0.00 58 1017.0
20260504183047 63 194 0.0 1.0 0.00 0.00 0.00 55 1016.8
20260504181548 65 249 1.0 5.0 0.00 0.00 0.00 52 1016.7
20260504180046 66 238 1.0 6.0 0.00 0.00 0.00 50 1016.7
20260504174546 67 259 2.0 8.0 0.00 0.00 0.00 50 1016.5
20260504173046 68 252 3.0 11.0 0.00 0.00 0.00 48 1016.3
20260504171548 69 262 3.0 10.0 0.00 0.00 0.00 47 1016.3
20260504090110 66 198 1.0 4.0 0.00 0.00 0.00 54 1018.7
20260504081553 62 150 1.0 5.0 0.00 0.00 0.00 60 1019.1
20260504044604 42 267 0.0 0.0 0.00 0.00 0.00 92 1019.0
20260504043058 41 267 0.0 0.0 0.00 0.00 0.00 92 1018.9
20260504041556 41 267 0.0 0.0 0.00 0.00 0.00 92 1018.9
20260504040106 41 267 0.0 0.0 0.00 0.00 0.00 92 1018.8
20260504034618 41 267 0.0 0.0 0.00 0.00 0.00 92 1018.9
20260504033054 41 267 0.0 0.0 0.00 0.00 0.00 91 1018.9
20260504031552 42 267 0.0 0.0 0.00 0.00 0.00 91 1018.8
20260504030118 41 267 0.0 0.0 0.00 0.00 0.00 91 1018.8
20260504024555 41 267 0.0 0.0 0.00 0.00 0.00 91 1018.9
20260504023049 42 267 0.0 0.0 0.00 0.00 0.00 90 1018.9
20260504021550 42 267 0.0 0.0 0.00 0.00 0.00 90 1018.9
20260504020046 42 267 0.0 0.0 0.00 0.00 0.00 90 1019.0
20260504014543 43 267 0.0 0.0 0.00 0.00 0.00 89 1018.9
20260504013049 43 267 0.0 0.0 0.00 0.00 0.00 89 1018.8
20260504011542 44 267 0.0 0.0 0.00 0.00 0.00 89 1018.8
20260504010041 44 267 0.0 0.0 0.00 0.00 0.00 89 1018.8
20260504004541 44 267 0.0 0.0 0.00 0.00 0.00 89 1018.8
20260504003040 43 267 0.0 0.0 0.00 0.00 0.00 89 1018.8
20260504001547 44 267 0.0 0.0 0.00 0.00 0.00 88 1018.9
20260504000038 44 267 0.0 0.0 0.00 0.00 0.00 88 1018.8
20260503234536 44 267 0.0 0.0 0.00 0.00 0.00 87 1018.9
20260503233038 45 267 0.0 0.0 0.00 0.00 0.00 86 1018.9